Location: Taio
(46.3224°N, 11.0658°E)
Time: 19:30:39
(UTC+01:00)

ISS - Visible Passes

Search period start: 26 January 2021 00:00
Search period end: 05 February 2021 00:00
Orbit: 418 x 421 km, 51.6° (Epoch: 27 January)

Date Brightness Start Highest point End Pass type
(mag) Time Alt. Az. Time Alt. Az. Time Alt. Az.
26 Jan -2.6 18:47:48 10° WNW 18:50:54 33° N 18:51:38 29° NNE visible
27 Jan -2.8 18:00:17 10° W 18:03:27 36° N 18:06:15 12° NE visible
27 Jan -1.6 19:37:38 10° WNW 19:39:13 22° NW 19:39:13 22° NW visible
28 Jan -2.7 18:50:14 10° WNW 18:53:20 32° N 18:53:50 30° NNE visible
29 Jan -2.6 18:02:45 10° WNW 18:05:50 31° N 18:08:28 13° ENE visible
29 Jan -1.7 19:39:47 10° WNW 19:41:27 25° NW 19:41:27 25° NW visible
30 Jan -3.2 18:52:25 10° WNW 18:55:40 41° NNE 18:56:07 38° NE visible
31 Jan -2.8 18:05:01 10° WNW 18:08:11 35° N 18:10:50 13° ENE visible
31 Jan -2.0 19:41:51 10° WNW 19:43:49 32° WNW 19:43:49 32° WNW visible
01 Feb -3.8 18:54:28 10° WNW 18:57:51 70° NNE 18:58:36 49° E visible
02 Feb -3.5 18:07:05 10° WNW 18:10:25 52° NNE 18:13:29 12° E visible
02 Feb -2.0 19:44:03 10° WNW 19:46:29 30° WSW 19:46:29 30° WSW visible
03 Feb -3.1 18:56:31 10° WNW 18:59:50 53° SSW 19:01:30 25° SSE visible
04 Feb -3.7 18:09:04 10° WNW 18:12:27 81° SSW 18:15:50 10° ESE visible
04 Feb -1.0 19:46:58 10° W 19:48:48 14° SW 19:49:44 13° SSW visible
